Location: Hartman Creek State Park
(44.3257°N, 89.2134°W)
Time: 08:41:38
(UTC-05:00)

Cosmos 2263 Rocket - Visible Passes

Search period start: 01 September 2014 00:00
Search period end: 11 September 2014 00:00
Orbit: 825 x 848 km, 71.0° (Epoch: 31 August)

Date Brightness Start Highest point End Pass type
(mag) Time Alt. Az. Time Alt. Az. Time Alt. Az.
01 Sep 4.7 03:11:29 10° N 03:15:32 20° NE 03:19:34 10° E visible
01 Sep 2.1 04:54:32 10° NNW 05:00:06 75° WSW 05:05:37 10° SSE visible
01 Sep 5.4 21:35:44 10° NW 21:37:10 11° NW 21:38:35 10° NNW visible
02 Sep 4.7 02:54:58 10° N 02:58:51 19° NE 03:02:43 10° E visible
02 Sep 2.0 04:37:54 10° NNW 04:43:30 81° WSW 04:49:02 10° SSE visible
02 Sep 5.3 21:18:33 10° WNW 21:20:27 12° NW 21:22:21 10° NNW visible
03 Sep 4.7 02:38:27 10° N 02:42:10 18° NE 02:45:51 10° E visible
03 Sep 2.1 04:21:17 10° NNW 04:26:53 87° WSW 04:32:26 10° SSE visible
03 Sep 5.2 21:01:28 10° WNW 21:03:44 12° NW 21:06:00 10° NNW visible
04 Sep 4.8 02:21:58 10° N 02:25:29 17° NE 02:28:58 10° E visible
04 Sep 2.1 04:04:40 10° NNW 04:10:16 87° ENE 04:15:49 10° SSE visible
04 Sep 3.7 05:50:48 10° WNW 05:53:22 13° W 05:55:55 10° SW visible
04 Sep 5.1 20:44:27 10° WNW 20:47:02 13° NW 20:49:37 10° NNW visible
05 Sep 4.8 02:05:29 10° N 02:08:47 16° NE 02:12:04 10° E visible
05 Sep 2.1 03:48:03 10° NNW 03:53:39 81° ENE 03:59:12 10° SSE visible
05 Sep 3.6 05:33:52 10° WNW 05:36:49 15° W 05:39:45 10° SW visible
05 Sep 5.1 20:27:28 10° WNW 20:30:19 14° NW 20:33:11 10° N visible
06 Sep 4.8 01:49:01 10° N 01:52:05 15° NE 01:55:08 10° ENE visible
06 Sep 2.2 03:31:27 10° NNW 03:37:02 75° ENE 03:39:15 38° SE visible
06 Sep 3.5 05:16:59 10° WNW 05:20:15 16° W 05:20:41 16° WSW visible
06 Sep 5.0 20:10:31 10° WNW 20:13:37 15° NW 20:16:44 10° N visible
07 Sep 4.8 01:32:34 10° N 01:35:23 14° NE 01:38:11 10° ENE visible
07 Sep 2.3 03:14:50 10° NNW 03:20:17 69° NE 03:20:17 69° NE visible
07 Sep 3.8 05:00:09 10° WNW 05:01:51 15° WNW 05:01:51 15° WNW visible
07 Sep 4.9 19:53:35 10° W 19:56:55 16° NW 20:00:16 10° N visible
08 Sep 4.8 01:16:09 10° NNE 01:18:40 13° NE 01:20:47 11° ENE visible
08 Sep 2.9 02:58:14 10° NNW 03:02:23 48° N 03:02:23 48° N visible
08 Sep 4.1 04:43:20 10° WNW 04:43:58 12° WNW 04:43:58 12° WNW visible
09 Sep 4.8 00:59:46 10° NNE 01:01:58 12° NE 01:03:17 11° NE visible
09 Sep 3.5 02:41:38 10° NNW 02:44:55 35° N 02:44:55 35° N visible
10 Sep 4.8 00:43:26 10° NNE 00:45:15 11° NE 00:46:04 11° NE visible
10 Sep 3.8 02:25:02 10° NNW 02:27:42 28° N 02:27:42 28° N visible
